ATLAS AGENA D R/B, 2144

Orbit data source: Space-Track

ATLAS AGENA D R/B, 2144 is space debris in LEO originally from a launch on Fri, 08 Apr 1966 UTC launched from the Air Force Eastern Test Range (AFETR). Debris objects in space refer to the collection of defunct objects orbiting the Earth. Examples of debris include non-operational satellites, rocket bodies, and fragments generated from explosions, collisions, or faulty payload assembly.

Loading next visibility...
ATLAS AGENA D R/B details
Identifier
2144, 1966-031B
Orbit
LEO
Last TLE update21 hours ago
Origin
Flag of USNASA LeRC (US)
ManufacturerLMSC
MissionSpacecraft
Bus & MotorAGENA D, Unknown motor
Mass769 kg wet, 769 kg dry
Launch date (UTC)
1966-04-08 (59 years ago)
Launch vehicleUnknown
Launch site
Air Force Eastern Test Range (AFETR)
Object type
Payload
Rocket body
Debris
Shape & HBRCyl, 6.3 m
Radar Cross Section8.306 m², Large (>1 m²)

Expand to show TLE details & history

TLE from 21 hours ago
0 ATLAS AGENA D R/B
1 02144U 66031B   24355.69780459  .00000838  00000-0  24604-3 0  9992
2 02144  35.0412 119.6081 0008260 359.1340   0.9335 14.44294855 84137
Epoch: 2024-12-20T16:44Z
Definitive object data (Epoch: 2024-12-20T16:44:50.316Z)
Latitude-0.00004°
Longitude138.63881°
Altitude737.411 km
Speed7.491 km/s
True Right ascension07h 58m 25s
True Declination0° 00' 00"
Sunlit
Object was in full shadow at TLE epoch
Visualization TLE readout
Latitude-30.6649°
Longitude11.01787°
Altitude755.1 km
Speed7.476 km/s
Apparent Right ascension00h 03m 36s
Apparent Declination-35° 16' 24"
Sunlit
Object is in daylight
Visualization observer readout
Local Sidereal Time12:48:25
Azimuth65.899° ENE
Elevation-79.993°
Doppler factor1
Orbital elements
Apogee altitude753.36 km
Perigee altitude741.589 km
Semi-major axis7,125.612 km
Eccentricity0.000826
Inclination35.0412°
RAAN119.6081°
Arg. of periapsis359.134°
True anomaly0.93504°
Mean anomaly0.9335°
Eccentric anomaly0.93427°
Mean motion3.60836 °/min
BSTAR0.00024604
Orbital period99.77 mins
Loading maneuver chart data...
Loading historical data...
Loading historical data...
Loading historical data...
Loading historical data...
Loading historical data...
Loading historical data...
Loading historical data...
Other satellites on launch #31 in the year 1966 (1966-04-08 UTC)

ATLAS AGENA D R/B Visibility forecast

Observer location: undefined°, undefined

Span
Click to sort rows by Start time (UTC) header in descending order
Start Az.
Max El. time (UTC)
Max El. Az.
Max El.
End time (UTC)
End Az.
9 mins2024-12-21 14:39:24.690Z254.856° W2024-12-21 14:44:24.690Z175.745° S37.439°2024-12-21 14:48:24.690Z110.315° ESE
7 mins2024-12-21 16:26:24.690Z249.445° W2024-12-21 16:29:24.690Z197.288° SSW29.442°2024-12-21 16:33:24.690Z137.314° SSE
7 mins2024-12-22 12:08:24.690Z215.686° SW2024-12-22 12:11:24.690Z168.276° S28.462°2024-12-22 12:15:24.690Z104.824° ESE
|